Regional Weather Roundup
Issued by NWS

Home | Current Version | Previous Version | Text Only | Print | Product List | Glossary Off
Versions: 1 2 3 4 5 6 7 8 9 10 11 12 13 14 15 16 17 18 19 20 21 22 23 24 25 26 27 28 29 30 31 32 33 34 35 36 37 38 39 40 41 42 43 44 45 46 47 48 49 50

000
ASUS43 KLMK 171102
RWRKY
KENTUCKY REGIONAL WEATHER ROUNDUP
NATIONAL WEATHER SERVICE LOUISVILLE KY
600 AM EST WED DEC 17 2014

NOTE "FAIR" INDICATES FEW OR NO CLOUDS BELOW 12,000 FEET
WITH NO SIGNIFICANT WEATHER AND/OR OBSTRUCTIONS TO VISIBILITY.

KYZ001>023-026-027-061>063-070>075-171200-
WESTERN AND SOUTH CENTRAL KENTUCKY

CITY           SKY/WX    TMP DP  RH WIND       PRES   REMARKS
PADUCAH        CLOUDY    33  26  75 N9        30.30S WCI  25
HENDERSON      CLOUDY    32  25  74 NW7       30.30R WCI  26
OWENSBORO      CLOUDY    33  27  79 MISG      30.29R
HOPKINSVILLE   CLOUDY    35  30  82 VRB6      30.28R WCI  30
BOWLING GREEN  CLOUDY    36  29  75 NW7       30.27R WCI  30
GLASGOW        NOT AVBL
$$

KYZ024-025-028>034-038-045-046-053-171200-
NORTH CENTRAL KENTUCKY

CITY           SKY/WX    TMP DP  RH WIND       PRES   REMARKS
LOUISVILLE/SDF CLOUDY    34  27  75 W12       30.25S WCI  25
LOUISVILLE/LOU CLOUDY    33  28  81 W10       30.25R WCI  25
FORT KNOX      CLOUDY    32  28  83 W10       30.23R WCI  24
$$

KYZ035>037-039>044-047>052-055>060-089>105-171200-
NORTHEAST KENTUCKY

CITY           SKY/WX    TMP DP  RH WIND       PRES   REMARKS
LEXINGTON      CLOUDY    33  31  92 W13       30.21R WCI  24
COVINGTON      FLURRIES  33  24  69 W16G25    30.19R WCI  23
FRANKFORT      CLOUDY    33  29  85 W8        30.22R WCI  26
$$

KYZ054-064>069-076>088-106>120-171200-
SOUTHEAST KENTUCKY

CITY           SKY/WX    TMP DP  RH WIND       PRES   REMARKS
JACKSON        CLOUDY    35  34  96 W6        30.16R FOG     WCI  30
LONDON         LGT RAIN  38  34  85 W8        30.19R FOG     WCI  32
SOMERSET       NOT AVBL
MIDDLESBORO    NOT AVBL
MONTICELLO     LGT SNOW  38  35  89 NW8       30.25R FOG     WCI  32
$$



USA.gov is the U.S. government's official web portal to all federal, state and local government web resources and services.